Location: Six Mile Lake
(44.9000°N, 79.7170°W)
Time: 10:10:55
(UTC-04:00)

First-Move - Visible Passes

Search period start: 25 June 2022 00:00
Search period end: 05 July 2022 00:00
Orbit: 571 x 660 km, 97.6° (Epoch: 24 June)

Date Brightness Start Highest point End Pass type
(mag) Time Alt. Az. Time Alt. Az. Time Alt. Az.
27 Jun ? 04:10:59 10° ENE 04:13:15 14° E 04:15:33 10° ESE visible
28 Jun ? 04:26:07 10° NE 04:29:23 20° E 04:32:41 10° SE visible
29 Jun ? 04:41:37 10° NE 04:45:29 28° E 04:49:22 10° SSE visible
03 Jul ? 04:10:34 10° ENE 04:12:59 14° E 04:15:24 10° ESE visible
04 Jul ? 04:25:43 10° NE 04:29:05 20° E 04:32:28 10° SE visible
